#timestamp,LO_Frequency,Hit,StdDev 
1625432415.6,286047004.4,N
1625432435.5,286047003.0,N
1625432455.3,286047005.4,Y
1625432475.2,286047002.7,P
1625432495.9,286046999.8,N
1625432515.7,286046999.7,N
1625432535.6,286046999.9,N
1625432555.4,286047000.3,N
1625432575.2,286046999.9,N
1625432595.1,286046999.8,N
1625432596.0,286046999.8,N
1625432615.8,286047000.1,N
1625432635.7,286047000.3,N
1625432655.5,286047000.7,N
1625432675.3,286047001.1,N
1625432695.2,286047001.0,N
1625432715.0,286047000.6,N
1625432715.9,286047000.6,N
1625432735.7,286047000.4,N
1625432755.6,286047000.5,N
1625432775.4,286047001.2,N
1625432795.3,286046998.7,N
1625432815.1,286046998.9,N
1625432816.0,286046998.9,N
1625432835.8,286046999.4,N
1625432855.7,286046997.7,N
1625432875.5,286046996.8,Y
1625432895.3,286046997.4,P
1625432915.2,286046995.6,P
1625432935.0,286046995.3,N
1625432935.9,286046995.3,N
1625432955.8,286046994.9,N
1625432975.6,286046997.8,N
1625432995.4,286046997.8,N
1625433015.3,286046995.2,N
1625433035.1,286046995.7,N
1625433055.9,286046996.0,N
1625433075.7,286046993.4,Y
1625433095.5,286046997.4,P
1625433115.4,286046999.5,N
1625433135.2,286046996.9,N
1625433155.0,286046997.5,N
1625433156.0,286046997.5,N
1625433175.8,286046995.2,Y
1625433195.6,286046998.7,P
1625433215.5,286046998.3,N
1625433235.3,286046998.6,N
1625433255.1,286047000.3,N
1625433275.9,286047001.2,N
1625433295.7,286046998.9,N
1625433315.5,286046996.9,N
1625433335.4,286046996.7,N
1625433355.2,286046997.0,N
1625433375.1,286046997.5,N
1625433376.0,286046997.5,N
1625433395.8,286046995.2,Y
1625433415.6,286046996.7,P
1625433435.5,286046999.1,N
1625433455.3,286046999.1,N
1625433475.2,286046997.4,N
1625433495.9,286046999.5,N
1625433515.7,286046996.8,Y
1625433535.6,286046999.3,P
1625433555.4,286046996.9,P
1625433575.2,286046996.9,P
1625433595.1,286046997.0,N
1625433596.0,286046997.0,Y
1625433615.8,286047000.9,P
1625433635.7,286047000.8,N
1625433655.5,286046999.0,N
1625433675.3,286046998.1,N
1625433695.2,286046999.1,N
1625433715.0,286047000.3,N
1625433715.9,286047000.3,N
1625433735.8,286047002.1,N
1625433755.6,286047002.8,N
1625433775.4,286047002.1,N
1625433795.3,286046999.8,N
1625433815.1,286047002.1,N
1625433835.8,286047000.2,N
1625433855.7,286047000.0,N
1625433875.5,286047000.5,N
1625433895.4,286047000.3,N
1625433915.2,286046998.3,N
1625433935.0,286047000.8,N
1625433935.9,286047000.8,N
1625433955.8,286046998.5,N
1625433975.6,286046998.6,N
1625433995.4,286047000.9,N
1625434015.3,286046998.6,N
1625434035.1,286046999.4,N
1625434055.9,286046996.7,N
1625434075.7,286046996.9,N
1625434095.5,286046996.9,N
1625434115.4,286046998.7,N
1625434135.2,286046999.1,N
1625434155.0,286046998.3,N
1625434155.9,286046998.3,N
1625434175.8,286047000.5,N
1625434195.6,286046998.4,N
1625434215.5,286046999.0,N
1625434235.3,286046996.5,N
1625434255.1,286046999.0,N
1625434275.9,286046996.6,N
1625434295.7,286046999.2,N
1625434315.5,286046998.9,N
1625434335.4,286046998.6,N
1625434355.2,286047000.7,N
1625434375.1,286047002.2,N
1625434376.0,286047002.2,N
1625434395.8,286047002.8,N
1625434415.6,286047000.0,N
1625434435.5,286047000.7,N
1625434455.3,286046999.7,N
1625434475.1,286047000.1,N
1625434495.9,286046999.7,N
1625434515.7,286046999.9,N
1625434535.6,286047000.9,N
1625434555.4,286047001.1,N
1625434575.2,286047000.6,N
1625434595.1,286047001.2,N
1625434596.0,286047001.2,N
1625434615.8,286047000.7,N
1625434635.7,286046999.8,N
1625434655.5,286046999.8,N
1625434675.3,286046999.9,N
1625434695.2,286047000.1,N
1625434715.0,286047000.1,N
1625434715.9,286047000.1,N
1625434735.7,286047000.5,N
1625434755.6,286047000.7,N
1625434775.4,286047000.1,N
1625434795.3,286047000.5,N
1625434815.1,286047001.1,N
1625434835.8,286046998.6,N
1625434855.7,286046998.4,N
1625434875.5,286046999.6,N
1625434895.3,286046998.3,N
1625434915.2,286046998.6,N
1625434935.0,286046998.9,N
1625434935.9,286046998.9,N
1625434955.8,286046998.8,N
1625434975.6,286046999.6,N
1625434995.4,286046999.0,N
1625435015.3,286047000.8,N
1625435035.1,286047001.0,N
1625435055.9,286047000.0,N
1625435075.7,286047000.9,N
1625435095.5,286046999.9,N
1625435115.4,286047000.3,N
1625435135.2,286047000.4,N
1625435155.0,286046999.9,N
1625435155.9,286046999.9,N
1625435175.8,286046998.2,N
1625435195.6,286046999.4,N
1625435215.5,286046998.3,N
1625435235.3,286047000.8,N
1625435255.1,286046998.7,N
1625435275.9,286046998.3,N
1625435295.7,286046998.4,N
1625435315.5,286046998.7,N
1625435335.4,286047000.7,N
1625435355.2,286046997.0,Y
1625435375.1,286046998.9,P
1625435376.0,286046998.9,P
1625435395.8,286046998.8,P
1625435415.6,286046999.6,N
1625435435.5,286046999.4,N
1625435455.3,286046999.3,N
1625435475.1,286046999.5,N
1625435495.9,286046996.9,Y
1625435515.7,286046998.6,P
1625435535.6,286046999.3,N
1625435555.4,286046999.1,N
1625435575.2,286046998.7,Y
1625435595.1,286047000.5,P
1625435596.0,286047000.5,N
1625435615.8,286047000.0,N
1625435635.6,286046999.8,N
1625435655.5,286047000.2,N
1625435675.3,286047000.1,N
1625435695.2,286047002.8,Y
1625435715.9,286047001.1,P
1625435735.7,286046998.1,P
1625435755.6,286046998.9,N
1625435775.4,286046998.5,N
1625435795.3,286047000.8,N
1625435815.1,286047000.0,N
1625435816.0,286047000.0,N
1625435835.8,286047000.4,N
1625435855.7,286047000.3,N
1625435875.5,286047002.7,N
1625435895.3,286047002.8,N
1625435915.2,286047000.0,N
1625435935.0,286047000.3,N
1625435935.9,286047000.3,N
1625435955.8,286047002.2,N
1625435975.6,286046999.9,N
1625435995.4,286047002.8,N
